| time (UTC) | temp C | wind direction | speed KPH | gust KPH | rain 1hr cm | rain 24hr cm | rain mn cm | humidity % | barometer mb |
| 20260509161503 | 3 | 168 | 0.0 | 0.0 | 0.00 | 0.00 | 0.00 | 93 | 1026.2 |
| 20260509154507 | 3 | 168 | 0.0 | 1.6 | 0.00 | 0.00 | 0.00 | 93 | 1026.1 |
| 20260509153101 | 3 | 168 | 0.0 | 3.2 | 0.00 | 0.00 | 0.00 | 93 | 1026.0 |
| 20260509151503 | 3 | 260 | 0.0 | 3.2 | 0.00 | 0.00 | 0.00 | 93 | 1025.9 |
| 20260509144505 | 3 | 260 | 0.0 | 0.0 | 0.00 | 0.00 | 0.00 | 92 | 1025.7 |
| 20260509143002 | 3 | 260 | 0.0 | 0.0 | 0.00 | 0.00 | 0.00 | 92 | 1025.7 |
| 20260509141602 | 3 | 260 | 0.0 | 0.0 | 0.00 | 0.00 | 0.00 | 92 | 1025.8 |
| 20260509140005 | 4 | 260 | 0.0 | 0.0 | 0.00 | 0.00 | 0.00 | 92 | 1025.6 |
| 20260509134613 | 4 | 260 | 0.0 | 0.0 | 0.00 | 0.00 | 0.00 | 92 | 1025.6 |
| 20260509133102 | 4 | 260 | 0.0 | 1.6 | 0.00 | 0.00 | 0.00 | 91 | 1025.6 |
| 20260509131502 | 4 | 260 | 0.0 | 0.0 | 0.00 | 0.00 | 0.00 | 91 | 1025.6 |
| 20260509124504 | 5 | 260 | 0.0 | 0.0 | 0.00 | 0.00 | 0.00 | 91 | 1025.7 |
| 20260509123132 | 5 | 260 | 0.0 | 0.0 | 0.00 | 0.00 | 0.00 | 91 | 1025.6 |
| 20260509121507 | 5 | 260 | 0.0 | 0.0 | 0.00 | 0.00 | 0.00 | 91 | 1025.6 |
| 20260509120116 | 5 | 260 | 0.0 | 0.0 | 0.00 | 0.00 | 0.00 | 90 | 1025.5 |
| 20260509114505 | 6 | 260 | 0.0 | 0.0 | 0.00 | 0.00 | 0.00 | 90 | 1025.4 |
| 20260509113109 | 6 | 260 | 0.0 | 0.0 | 0.00 | 0.00 | 0.00 | 90 | 1025.2 |
| 20260509111502 | 6 | 260 | 0.0 | 1.6 | 0.00 | 0.00 | 0.00 | 90 | 1025.2 |
| 20260509110109 | 6 | 260 | 0.0 | 0.0 | 0.00 | 0.00 | 0.00 | 90 | 1025.1 |
| 20260509104502 | 7 | 260 | 0.0 | 0.0 | 0.00 | 0.00 | 0.00 | 89 | 1024.9 |
| 20260509103106 | 7 | 260 | 0.0 | 0.0 | 0.00 | 0.00 | 0.00 | 89 | 1024.9 |
| 20260509101504 | 7 | 260 | 0.0 | 3.2 | 0.00 | 0.00 | 0.00 | 89 | 1024.8 |
| 20260509100104 | 7 | 260 | 0.0 | 3.2 | 0.00 | 0.00 | 0.00 | 88 | 1024.7 |
| 20260509094505 | 8 | 260 | 0.0 | 1.6 | 0.00 | 0.00 | 0.00 | 88 | 1024.5 |
| 20260509093108 | 8 | 260 | 0.0 | 3.2 | 0.00 | 0.00 | 0.00 | 88 | 1024.5 |
| 20260509091501 | 9 | 260 | 0.0 | 0.0 | 0.00 | 0.00 | 0.00 | 87 | 1024.3 |
| 20260509090105 | 9 | 260 | 1.6 | 4.8 | 0.00 | 0.00 | 0.00 | 86 | 1024.2 |
| 20260509084502 | 10 | 260 | 0.0 | 4.8 | 0.00 | 0.00 | 0.00 | 84 | 1024.0 |
| 20260509083104 | 10 | 260 | 0.0 | 3.2 | 0.00 | 0.00 | 0.00 | 82 | 1023.8 |
| 20260509081504 | 11 | 261 | 1.6 | 4.8 | 0.00 | 0.00 | 0.00 | 80 | 1023.5 |
| 20260509074602 | 13 | 297 | 0.0 | 1.6 | 0.00 | 0.00 | 0.00 | 73 | 1023.1 |
| 20260509073004 | 15 | 297 | 0.0 | 0.0 | 0.00 | 0.00 | 0.00 | 69 | 1022.9 |
| 20260509071602 | 16 | 297 | 1.6 | 3.2 | 0.00 | 0.00 | 0.00 | 67 | 1022.7 |
| 20260509064502 | 19 | 1 | 0.0 | 0.0 | 0.00 | 0.00 | 0.00 | 62 | 1022.5 |
| 20260509063102 | 19 | 1 | 0.0 | 3.2 | 0.00 | 0.00 | 0.00 | 60 | 1022.5 |
| 20260509061606 | 19 | 123 | 1.6 | 6.4 | 0.00 | 0.00 | 0.00 | 59 | 1022.3 |
| 20260509060002 | 19 | 148 | 3.2 | 6.4 | 0.00 | 0.00 | 0.00 | 59 | 1022.3 |
| 20260509054604 | 19 | 107 | 3.2 | 8.0 | 0.00 | 0.00 | 0.00 | 57 | 1022.1 |
| 20260509053002 | 19 | 74 | 3.2 | 8.0 | 0.00 | 0.00 | 0.00 | 57 | 1022.2 |
| 20260509051601 | 19 | 102 | 1.6 | 3.2 | 0.00 | 0.00 | 0.00 | 58 | 1022.2 |
| 20260509050003 | 18 | 164 | 3.2 | 8.0 | 0.00 | 0.00 | 0.00 | 59 | 1022.2 |
| 20260509044602 | 18 | 134 | 4.8 | 9.7 | 0.00 | 0.00 | 0.00 | 58 | 1022.3 |
| 20260509043001 | 19 | 342 | 4.8 | 9.7 | 0.00 | 0.00 | 0.00 | 58 | 1022.4 |
| 20260509041621 | 19 | 147 | 1.6 | 6.4 | 0.00 | 0.00 | 0.00 | 57 | 1022.3 |
| 20260509040002 | 19 | 61 | 1.6 | 6.4 | 0.00 | 0.00 | 0.00 | 57 | 1022.5 |
| 20260509034601 | 19 | 46 | 1.6 | 6.4 | 0.00 | 0.00 | 0.00 | 56 | 1022.5 |
| 20260509033001 | 19 | 29 | 1.6 | 6.4 | 0.00 | 0.00 | 0.00 | 57 | 1022.8 |
| 20260509031601 | 18 | 319 | 4.8 | 11.3 | 0.00 | 0.00 | 0.00 | 61 | 1022.8 |
| 20260509030002 | 18 | 331 | 1.6 | 8.0 | 0.00 | 0.00 | 0.00 | 59 | 1022.9 |
| 20260509024606 | 18 | 6 | 3.2 | 11.3 | 0.00 | 0.00 | 0.00 | 60 | 1023.1 |
| 20260509023001 | 18 | 48 | 3.2 | 6.4 | 0.00 | 0.00 | 0.00 | 58 | 1023.3 |
| 20260509021603 | 18 | 321 | 3.2 | 8.0 | 0.00 | 0.00 | 0.00 | 60 | 1023.5 |
| 20260509020007 | 17 | 343 | 8.0 | 12.9 | 0.00 | 0.00 | 0.00 | 62 | 1023.7 |
| 20260509014601 | 17 | 314 | 4.8 | 12.9 | 0.00 | 0.00 | 0.00 | 62 | 1024.0 |
| 20260509013012 | 17 | 336 | 11.3 | 16.1 | 0.00 | 0.00 | 0.00 | 64 | 1024.1 |
| 20260509011602 | 16 | 326 | 9.7 | 17.7 | 0.00 | 0.00 | 0.00 | 67 | 1024.2 |
| 20260509010002 | 15 | 347 | 11.3 | 19.3 | 0.00 | 0.00 | 0.00 | 70 | 1024.5 |
| 20260509004602 | 15 | 329 | 4.8 | 16.1 | 0.00 | 0.00 | 0.00 | 67 | 1024.6 |
| 20260509003002 | 15 | 238 | 6.4 | 14.5 | 0.00 | 0.00 | 0.00 | 67 | 1024.8 |
| 20260509001602 | 15 | 348 | 8.0 | 11.3 | 0.00 | 0.00 | 0.00 | 70 | 1024.9 |
| 20260509000002 | 13 | 348 | 3.2 | 16.1 | 0.00 | 0.00 | 0.00 | 72 | 1024.9 |
| 20260508234602 | 13 | 332 | 1.6 | 11.3 | 0.00 | 0.00 | 0.00 | 73 | 1024.9 |
| 20260508233003 | 13 | 323 | 0.0 | 11.3 | 0.00 | 0.00 | 0.00 | 73 | 1025.0 |
| 20260508231602 | 12 | 174 | 0.0 | 3.2 | 0.00 | 0.00 | 0.00 | 72 | 1024.9 |
| 20260508230105 | 12 | 143 | 0.0 | 11.3 | 0.00 | 0.00 | 0.00 | 73 | 1024.9 |
| 20260508224502 | 12 | 76 | 1.6 | 3.2 | 0.00 | 0.00 | 0.00 | 74 | 1024.9 |
| 20260508223102 | 12 | 76 | 0.0 | 3.2 | 0.00 | 0.00 | 0.00 | 74 | 1024.8 |
| 20260508221502 | 12 | 358 | 0.0 | 8.0 | 0.00 | 0.00 | 0.00 | 76 | 1024.5 |
| 20260508214506 | 11 | 286 | 0.0 | 1.6 | 0.00 | 0.00 | 0.00 | 76 | 1024.3 |
| 20260508213101 | 11 | 338 | 3.2 | 8.0 | 0.00 | 0.00 | 0.00 | 76 | 1024.0 |
| 20260508211507 | 11 | 3 | 1.6 | 8.0 | 0.00 | 0.00 | 0.00 | 77 | 1023.9 |
| 20260508204504 | 11 | 228 | 0.0 | 3.2 | 0.00 | 0.00 | 0.00 | 78 | 1023.6 |
| 20260508203102 | 11 | 228 | 1.6 | 8.0 | 0.00 | 0.00 | 0.00 | 80 | 1023.6 |
| 20260508201503 | 11 | 323 | 3.2 | 8.0 | 0.00 | 0.00 | 0.00 | 82 | 1023.3 |
| 20260508200002 | 11 | 167 | 1.6 | 4.8 | 0.00 | 0.00 | 0.00 | 83 | 1023.1 |
| 20260508194603 | 11 | 255 | 1.6 | 6.4 | 0.00 | 0.00 | 0.00 | 82 | 1023.0 |
| 20260508193151 | 11 | 255 | 0.0 | 1.6 | 0.00 | 0.00 | 0.00 | 82 | 1022.8 |
| 20260508191503 | 11 | 255 | 0.0 | 4.8 | 0.00 | 0.00 | 0.00 | 82 | 1022.7 |
| 20260508190104 | 11 | 29 | 0.0 | 0.0 | 0.00 | 0.00 | 0.00 | 84 | 1022.7 |
| 20260508184506 | 11 | 29 | 1.6 | 4.8 | 0.00 | 0.00 | 0.00 | 84 | 1022.6 |
| 20260508183127 | 10 | 29 | 1.6 | 4.8 | 0.00 | 0.00 | 0.00 | 84 | 1022.5 |
| 20260508181510 | 10 | 85 | 0.0 | 3.2 | 0.00 | 0.00 | 0.00 | 86 | 1022.4 |
| 20260508180013 | 10 | 301 | 1.6 | 4.8 | 0.00 | 0.00 | 0.00 | 86 | 1022.3 |
| 20260508174502 | 10 | 273 | 3.2 | 6.4 | 0.00 | 0.00 | 0.00 | 86 | 1022.3 |
| 20260508173105 | 10 | 219 | 0.0 | 4.8 | 0.00 | 0.00 | 0.00 | 85 | 1022.2 |
| 20260508171601 | 10 | 214 | 1.6 | 8.0 | 0.00 | 0.00 | 0.00 | 85 | 1022.2 |
| 20260508170001 | 10 | 312 | 0.0 | 1.6 | 0.00 | 0.00 | 0.00 | 85 | 1022.2 |
| 20260508164603 | 10 | 312 | 0.0 | 0.0 | 0.00 | 0.00 | 0.00 | 85 | 1022.0 |
| 20260508163002 | 10 | 312 | 0.0 | 9.7 | 0.00 | 0.00 | 0.00 | 85 | 1021.9 |